Regional Weather Roundup
Issued by NWS

Home | Current Version | Previous Version | Text Only | Print | Product List | Glossary On
Versions: 1 2 3 4 5 6 7 8 9 10 11 12 13 14 15 16 17 18 19 20 21 22 23 24 25 26 27 28 29 30 31 32 33 34 35 36 37 38 39 40 41 42 43 44 45 46 47 48 49 50
000
ASUS44 KFWD 261403
RWRTX
NORTH TEXAS HOURLY WEATHER ROUNDUP
NATIONAL WEATHER SERVICE FORT WORTH TX
900 AM CDT SAT JUL 26 2014

NOTE: "FAIR" INDICATES FEW OR NO CLOUDS BELOW 12,000 FEET WITH NO
SIGNIFICANT WEATHER AND/OR OBSTRUCTIONS TO VISIBILITY.

TXZ118-119-261500-
DALLAS/FORT WORTH METROPLEX

CITY           SKY/WX    TMP DP  RH WIND       PRES   REMARKS
DFW AIRPORT    MOSUNNY   85  70  60 S14       30.00R
DALLAS LOVE    SUNNY     85  70  60 SW8       30.01R
FTW MEACHAM    SUNNY     85  71  63 S10       30.00R HX  90
DAL-EXECUTIVE  SUNNY     84  71  65 S6        30.01R
FTW-ALLIANCE   MOSUNNY   83  70  64 SW10G17   30.00R
FTW-NAS-JRB    MOSUNNY   86  69  56 S12       30.05R HX  90
ARLINGTON      SUNNY     82  70  66 S9        30.01R
GRAND PRAIRIE  SUNNY     82  70  65 S7        30.03R
ADDISON        SUNNY     81  70  69 S8G16     30.01S
MESQUITE       SUNNY     81  72  74 S10       30.02R
LANCASTER      SUNNY     82  70  68 S6        30.03R
$$

TXZ091>094-102>105-117-120-121-131>134-261500-
NORTH CENTRAL TEXAS

CITY           SKY/WX    TMP DP  RH WIND       PRES   REMARKS
SHRMAN/DENISON SUNNY     85  70  61 S14       30.01R
GAINESVILLE    SUNNY     81  71  72 S12       30.02R
BOWIE          SUNNY     81  72  73 S9        30.01R
BRIDGEPORT     SUNNY     83  67  59 SW9       30.02R
DECATUR        SUNNY     81  69  66 S12       30.02R
DENTON         SUNNY     84  72  67 S10       30.00R
MCKINNEY       SUNNY     83  72  69 S9        30.01R
GREENVILLE     SUNNY     81  70  69 S9        30.03R
ROCKWALL       SUNNY     81  73  76 SW13      30.02R
TERRELL        SUNNY     82  74  76 S8        30.03R
WAXAHACHIE     SUNNY     82  69  64 S9        30.04R
CLEBURNE       SUNNY     81  73  78 S9        30.04R
GRANBURY       SUNNY     85  70  60 S9        30.03R
$$

TXZ083>090-098>101-113>116-127>130-139>142-154-155-261500-
WESTERN NORTH TEXAS

CITY           SKY/WX    TMP DP  RH WIND       PRES   REMARKS
WICHITA FALLS  SUNNY     83  68  60 S13       29.97R
WF-KICKAPOO    SUNNY     83  66  55 S13G18    29.99R
VERNON         SUNNY     84  64  51 SW10      29.98R
ABILENE        SUNNY     82  67  60 S14G20    30.04R
ABILENE-DYESS  SUNNY     82  67  60 S13       30.02R
BRECKENRIDGE   SUNNY     83  67  56 S12G20    30.02R
GRAHAM         SUNNY     83  67  58 S10       30.00R
MINERAL WELLS  SUNNY     82  70  66 S12       30.01R
STEPHENVILLE   SUNNY     80  69  68 S7        30.06S
COMANCHE       SUNNY     82  67  61 S9        30.04S
BROWNWOOD      SUNNY     79  68  69 S9        30.05R
COLEMAN        SUNNY     79  67  66 S6        30.06R
BRADY          SUNNY     79  68  69 S10       30.06R
$$

TXZ143>147-156>162-174-175-261500-
CENTRAL TEXAS

CITY           SKY/WX    TMP DP  RH WIND       PRES   REMARKS
WACO           SUNNY     82  73  74 S13       30.03R
WACO-MCGREGOR  SUNNY     82  72  69 S13G18    30.05R
HILLSBORO      SUNNY     82  71  71 S9        30.03R
CORSICANA      SUNNY     82  74  76 S9        30.04R
MEXIA          PTSUNNY   79  75  87 S9        30.04R
HEARNE         MOSUNNY  N/A N/A N/A S9        30.06R
CAMERON        SUNNY     81  76  84 S9        30.05R
TEMPLE         SUNNY     79  72  78 S13       30.05R
KILLEEN        MOSUNNY   81  72  74 S13       30.05R
KILLEEN-SKYLRK SUNNY     81  70  69 S12       30.05R
FORT HOOD      SUNNY     83  73  72 S7        30.05R
GATESVILLE     SUNNY     81  72  74 S8        30.06S HAZE
HAMILTON       SUNNY     81  69  67 S8        30.06R
LAMPASAS       SUNNY     81  74  79 S7        30.05R
$$

TXZ095>097-106>112-122>126-135>138-148>153-164>167-261500-
EAST TEXAS

CITY           SKY/WX    TMP DP  RH WIND       PRES   REMARKS
PARIS          SUNNY     81  70  69 SW10      30.02S
SULPHUR SPRNGS SUNNY     82  72  72 SW12      30.05R
CLARKSVILLE    MOSUNNY   82  75  77 S5        30.03R
MOUNT PLEASANT SUNNY     81  74  80 SW6       30.05S
GILMER         SUNNY     81  73  78 SW7       30.06R
MINEOLA        SUNNY     81  73  78 SW6       30.05S
TYLER          SUNNY     82  74  76 SW9       30.05R
LONGVIEW       SUNNY     81  73  76 SW6       30.05R
MARSHALL       SUNNY     82  76  81 SW7       30.07R
ATHENS         MOSUNNY   79  73  83 S6        30.04S
JACKSONVILLE   MOSUNNY   80  75  85 SW8       30.09R
HENDERSON      SUNNY     80  74  82 SW6       30.07R
NACOGDOCHES    MOSUNNY   79  75  89 W8        30.07R
LUFKIN         SUNNY     84  76  76 SW7       30.07R HX  93
$$

SUPPLEMENTAL OBSERVATIONS (CENTRAL)

CITY           SKY/WX    TMP DP  RH WIND       PRES   REMARKS
$$

SUPPLEMENTAL OBSERVATIONS (WEST)

CITY           SKY/WX    TMP DP  RH WIND       PRES   REMARKS
$$

SUPPLEMENTAL OBSERVATIONS (EAST)

CITY           SKY/WX    TMP DP  RH WIND       PRES   REMARKS
$$

SUPPLEMENTAL OBSERVATIONS ARE A COLLECTION OF AUTOMATED INSTRUMENTS
THAT ARE MAINTAINED BY A VARIETY OF FEDERAL AND STATE AGENCIES.
CERTAIN ELEMENTS...SUCH AS HUMIDITY VALUES AND SUSTAINED WIND
SPEEDS...MAY BE APPROXIMATED.




USA.gov is the U.S. government's official web portal to all federal, state and local government web resources and services.